Location: Bakhuizen
(52.8696°N, 5.4575°E)
Time: 20:34:45
(UTC+00:00)

Cosmos 2278 Rocket - Pass Details

Date: 11 May 2021
Orbit: 841 x 845 km, 71.0° (Epoch: 24 June)

Event Time Altitude Azimuth Distance (km) Brightness Sun altitude
Rises 22:02:20 0° 225° (SW) 3,389 5.1 -16.3°
Reaches altitude 10° 22:04:50 10° 230° (SW) 2,457 4.4 -16.4°
Maximum altitude 22:10:22 55° 308° (NW) 1,009 2.9 -16.7°
Drops below altitude 10° 22:15:56 10° 26° (NNE) 2,471 5.2 -17.0°
Sets 22:18:27 0° 31° (NNE) 3,410 6.0 -17.1°
